STARLINK-37589, 69839

Orbit data source: Space-Track

STARLINK-37589, 69839 is a payload satellite owned by SpaceX/Seattle (US) in LEO that was launched on Sun, 05 Jul 2026 UTC via an FALCON 9 launch vehicle from the Air Force Eastern Test Range (AFETR). Payload-class satellites include a variety of spacecraft equipped with specific instruments for various scientific and technological missions. These include communications satellites like Starlink; space stations such as the ISS; scientific satellites like the Hubble; Earth observation satellites from companies like Planet Labs, Umbra, and HawkEye 360; GPS; miniature CubeSats for education and research; and military/defense satellites.

Loading next visibility...
Identifier
69839, 2026-154W
Orbit
LEO
Country
Flag of USUS
Related business
Manufacturer
SpaceX/Seattle
Mission
Operational spacecraft
Bus & Motor
STARLINK V2MO, Unknown motor
Mass
575 kg wet, ~530 kg dry
Launch date (UTC)
2026-07-05 (2 months ago)
Launch vehicle
FALCON 9
Launch site
Air Force Eastern Test Range (AFETR)
Object type
Payload
Rocket body
Debris
Shape & HBR
BOX + PAN, 17.7 m
Radar Cross Section
Large (>1 m²)

Expand to show TLE details & history
Last TLE update: 6 hours ago

TLE from 6 hours ago
0 STARLINK-37589
1 69839U 26154W   26236.60643145  .00022526  00000-0  65433-3 0  9992
2 69839  53.1590  97.1312 0002422  82.0733 278.0545 15.35418032  9110
Epoch: 2026-08-24T14:33Z
TLE epoch observation values (Epoch: 2026-08-24T14:33:15.677Z)
Latitude
Longitude
-94.06984°
Altitude
460.349 km
Speed
7.638 km/s
True Right ascension
06h 28m 31s
True Declination
0° 00' 00"
Sunlit
Object was in daylight at epoch
Visualization orbit readout
Latitude
Unknown
Longitude
Unknown
Altitude
Unknown
Speed
Unknown
Apparent Right ascension
Unknown
Apparent Declination
Unknown
Sunlit
N/A
Visualization observer readout
Local Sidereal Time
12:10:05
Azimuth
Unknown
Elevation
Unknown
Doppler factor
Unknown
Orbital elements
Apogee altitude
461.592 km
Perigee altitude
458.28 km
Semi-major axis
6,838.073 km
Eccentricity
0.00024
Inclination
53.159°
RAAN
97.1312°
Arg. of periapsis
82.0733°
True anomaly
278.02702°
Mean anomaly
278.0545°
Eccentric anomaly
278.04076°
Mean motion
3.83833 °/min
Orbital period
93.79 mins
BSTAR
0.00065433
Loading maneuver chart data...
Computing Atmospheric mass density...
Loading historical data...
Loading historical data...
Loading historical data...
Loading historical data...
Loading historical data...
Loading historical data...
Loading historical data...

Documentation

Showing up to 5 results
|